Location: Ponte Samoggia
(44.5667°N, 11.1333°E)
Time: 00:20:11
(UTC+00:00)

BREEZE-M DEB (TANK) - Pass Details

Date: 26 May 2022
Orbit: 299 x 13684 km, 49.6° (Epoch: 25 June)

Event Time Altitude Azimuth Distance (km) Brightness Sun altitude
Exits shadow 02:46:15 10° 239° (WSW) 2,542 5.5 -8.2°
Reaches altitude 10° 02:46:23 10° 239° (WSW) 2,473 5.5 -8.2°
Maximum altitude 02:50:58 76° 154° (SSE) 442 2.3 -7.6°
Drops below altitude 10° 02:53:14 10° 67° (ENE) 1,240 6.1 -7.3°
Sets 02:54:42 0° 66° (ENE) 1,999 7.5 -7.1°
